Gaosu Jiguang Zuanzhi 2

operational
NORAD ID: 62291 Int'l Des: 2024-238 Owner: CASC Country: CN
LEOCIRCULAR

About Gaosu Jiguang Zuanzhi 2

Description loading...

Live Position

Loading 3D Globe...

Upcoming Passes

Altitude History

Altitude vs Time

uPlot chart will show altitude changes over time

Two-Line Element Set

1 62291U 24238B 26062.19487446 -.00000042 00000-0 79712-4 0 9995
2 62291 59.9167 211.5441 0007904 96.6732 263.5176 13.75185471 61706
Epoch: Mar 3, 2026 • Age: 28 hours

Current Status

Altitude 979.1 km
Velocity 7.37 km/s
Sub-Earth Point 19.45°N, 153.06°E
Launch Date Dec 12, 2024
Age 1.2 years
Type other

Technical Details

Classification Payload
Mass 150.00 kg
Dry Mass 150.00 kg
Total Mass 150.00 kg
Length 0.30 m
Diameter 0.20 m
Span 3.00 m
Shape Box + 2 pan
Manufacturer HITSAT
Bus Type HarbFlat
Phase Status In Orbit
Owner/State CASC/CN

Large Constellations

Loading constellations...